| time (UTC) | temp F | wind direction | speed MPH | gust MPH | rain 1hr in | rain 24hr in | rain mn in | humidity % | barometer mb |
| 20260507151702 | 68 | 351 | 1.0 | 5.0 | 0.00 | 0.00 | 0.00 | 20 | 1020.9 |
| 20260507151202 | 68 | 355 | 1.0 | 5.0 | 0.00 | 0.00 | 0.00 | 20 | 1021.0 |
| 20260507150700 | 67 | 328 | 1.0 | 3.0 | 0.00 | 0.00 | 0.00 | 21 | 1021.1 |
| 20260507150159 | 67 | 319 | 0.0 | 2.0 | 0.00 | 0.00 | 0.00 | 21 | 1021.1 |
| 20260507145658 | 67 | 350 | 0.0 | 4.0 | 0.00 | 0.00 | 0.00 | 21 | 1021.3 |
| 20260507145201 | 67 | 336 | 0.0 | 4.0 | 0.00 | 0.00 | 0.00 | 21 | 1021.3 |
| 20260507144658 | 67 | 326 | 0.0 | 3.0 | 0.00 | 0.00 | 0.00 | 22 | 1021.3 |
| 20260507144158 | 66 | 341 | 0.0 | 3.0 | 0.00 | 0.00 | 0.00 | 21 | 1021.3 |
| 20260507143657 | 66 | 355 | 1.0 | 4.0 | 0.00 | 0.00 | 0.00 | 22 | 1021.4 |
| 20260507143154 | 66 | 351 | 1.0 | 4.0 | 0.00 | 0.00 | 0.00 | 22 | 1021.4 |
| 20260507142654 | 65 | 342 | 1.0 | 3.0 | 0.00 | 0.00 | 0.00 | 23 | 1021.4 |
| 20260507142154 | 65 | 331 | 1.0 | 4.0 | 0.00 | 0.00 | 0.00 | 24 | 1021.4 |
| 20260507141648 | 64 | 339 | 1.0 | 4.0 | 0.00 | 0.00 | 0.00 | 25 | 1021.4 |
| 20260507141146 | 64 | 344 | 1.0 | 4.0 | 0.00 | 0.00 | 0.00 | 24 | 1021.4 |
| 20260507140644 | 64 | 332 | 0.0 | 4.0 | 0.00 | 0.00 | 0.00 | 25 | 1021.4 |
| 20260507140144 | 63 | 284 | 0.0 | 0.0 | 0.00 | 0.00 | 0.00 | 26 | 1021.4 |
| 20260507135646 | 62 | 284 | 0.0 | 0.0 | 0.00 | 0.00 | 0.00 | 27 | 1021.4 |
| 20260507135138 | 61 | 284 | 0.0 | 0.0 | 0.00 | 0.00 | 0.00 | 27 | 1021.3 |
| 20260507134637 | 60 | 234 | 0.0 | 2.0 | 0.00 | 0.00 | 0.00 | 25 | 1021.1 |
| 20260507133630 | 59 | 265 | 0.0 | 0.0 | 0.00 | 0.00 | 0.00 | 25 | 1021.0 |
| 20260507132624 | 58 | 294 | 0.0 | 0.0 | 0.00 | 0.00 | 0.00 | 28 | 1021.0 |
| 20260507132122 | 57 | 294 | 0.0 | 1.0 | 0.00 | 0.00 | 0.00 | 27 | 1021.0 |
| 20260507131119 | 57 | 294 | 0.0 | 2.0 | 0.00 | 0.00 | 0.00 | 26 | 1021.0 |
| 20260507130118 | 56 | 255 | 0.0 | 2.0 | 0.00 | 0.00 | 0.00 | 27 | 1020.9 |
| 20260507125615 | 56 | 257 | 1.0 | 3.0 | 0.00 | 0.00 | 0.00 | 28 | 1020.9 |
| 20260507125116 | 55 | 260 | 2.0 | 3.0 | 0.00 | 0.00 | 0.00 | 28 | 1020.9 |
| 20260507124614 | 55 | 245 | 1.0 | 3.0 | 0.00 | 0.00 | 0.00 | 28 | 1020.9 |
| 20260507124114 | 55 | 255 | 1.0 | 3.0 | 0.00 | 0.00 | 0.00 | 29 | 1020.9 |
| 20260507123614 | 55 | 259 | 1.0 | 3.0 | 0.00 | 0.00 | 0.00 | 30 | 1020.8 |
| 20260507123114 | 54 | 254 | 1.0 | 3.0 | 0.00 | 0.00 | 0.00 | 30 | 1020.9 |
| 20260507122614 | 54 | 266 | 0.0 | 2.0 | 0.00 | 0.00 | 0.00 | 31 | 1020.8 |
| 20260507122112 | 54 | 262 | 1.0 | 3.0 | 0.00 | 0.00 | 0.00 | 32 | 1020.9 |
| 20260507121108 | 55 | 292 | 0.0 | 2.0 | 0.00 | 0.00 | 0.00 | 32 | 1021.0 |
| 20260507120606 | 56 | 259 | 0.0 | 2.0 | 0.00 | 0.00 | 0.00 | 33 | 1020.9 |
| 20260507115104 | 57 | 250 | 1.0 | 2.0 | 0.00 | 0.00 | 0.00 | 33 | 1021.0 |
| 20260507114604 | 57 | 244 | 1.0 | 3.0 | 0.00 | 0.00 | 0.00 | 33 | 1020.9 |
| 20260507114103 | 57 | 238 | 1.0 | 3.0 | 0.00 | 0.00 | 0.00 | 35 | 1020.9 |
| 20260507113605 | 56 | 265 | 1.0 | 2.0 | 0.00 | 0.00 | 0.00 | 36 | 1021.0 |
| 20260507113104 | 56 | 260 | 0.0 | 2.0 | 0.00 | 0.00 | 0.00 | 37 | 1021.0 |
| 20260507112604 | 56 | 258 | 1.0 | 2.0 | 0.00 | 0.00 | 0.00 | 38 | 1021.0 |
| 20260507112104 | 55 | 258 | 1.0 | 2.0 | 0.00 | 0.00 | 0.00 | 40 | 1021.0 |
| 20260507111602 | 55 | 258 | 1.0 | 3.0 | 0.00 | 0.00 | 0.00 | 40 | 1021.0 |
| 20260507111102 | 55 | 269 | 1.0 | 3.0 | 0.00 | 0.00 | 0.00 | 40 | 1020.9 |
| 20260507110602 | 55 | 269 | 2.0 | 3.0 | 0.00 | 0.00 | 0.00 | 41 | 1020.9 |
| 20260507105600 | 54 | 269 | 2.0 | 3.0 | 0.00 | 0.00 | 0.00 | 41 | 1020.9 |
| 20260507105100 | 54 | 256 | 1.0 | 3.0 | 0.00 | 0.00 | 0.00 | 42 | 1021.0 |
| 20260507104600 | 54 | 259 | 1.0 | 3.0 | 0.00 | 0.00 | 0.00 | 42 | 1021.0 |
| 20260507104100 | 54 | 262 | 1.0 | 2.0 | 0.00 | 0.00 | 0.00 | 41 | 1020.9 |
| 20260507103555 | 54 | 273 | 1.0 | 2.0 | 0.00 | 0.00 | 0.00 | 41 | 1021.0 |
| 20260507103056 | 55 | 265 | 1.0 | 2.0 | 0.00 | 0.00 | 0.00 | 41 | 1021.0 |
| 20260507102553 | 55 | 264 | 1.0 | 2.0 | 0.00 | 0.00 | 0.00 | 40 | 1020.9 |
| 20260507102054 | 55 | 257 | 1.0 | 2.0 | 0.00 | 0.00 | 0.00 | 40 | 1020.9 |
| 20260507101554 | 55 | 263 | 1.0 | 2.0 | 0.00 | 0.00 | 0.00 | 40 | 1021.0 |
| 20260507101055 | 55 | 256 | 1.0 | 2.0 | 0.00 | 0.00 | 0.00 | 40 | 1021.0 |
| 20260507100553 | 55 | 264 | 0.0 | 1.0 | 0.00 | 0.00 | 0.00 | 40 | 1021.0 |
| 20260507100051 | 55 | 263 | 0.0 | 1.0 | 0.00 | 0.00 | 0.00 | 40 | 1020.9 |
| 20260507095551 | 55 | 269 | 0.0 | 2.0 | 0.00 | 0.00 | 0.00 | 40 | 1020.8 |
| 20260507091546 | 57 | 263 | 1.0 | 2.0 | 0.00 | 0.00 | 0.00 | 38 | 1020.5 |
| 20260507091044 | 57 | 259 | 1.0 | 2.0 | 0.00 | 0.00 | 0.00 | 37 | 1020.5 |
| 20260507090542 | 57 | 250 | 0.0 | 2.0 | 0.00 | 0.00 | 0.00 | 37 | 1020.5 |
| 20260507090041 | 57 | 254 | 0.0 | 2.0 | 0.00 | 0.00 | 0.00 | 37 | 1020.5 |
| 20260507085540 | 57 | 259 | 0.0 | 1.0 | 0.00 | 0.00 | 0.00 | 37 | 1020.5 |
| 20260507085040 | 57 | 258 | 0.0 | 2.0 | 0.00 | 0.00 | 0.00 | 37 | 1020.5 |
| 20260507084538 | 57 | 258 | 0.0 | 2.0 | 0.00 | 0.00 | 0.00 | 37 | 1020.5 |
| 20260507084038 | 57 | 261 | 0.0 | 2.0 | 0.00 | 0.00 | 0.00 | 37 | 1020.5 |
| 20260507083538 | 57 | 261 | 0.0 | 2.0 | 0.00 | 0.00 | 0.00 | 37 | 1020.5 |
| 20260507083038 | 57 | 288 | 0.0 | 2.0 | 0.00 | 0.00 | 0.00 | 37 | 1020.5 |
| 20260507082538 | 57 | 288 | 1.0 | 2.0 | 0.00 | 0.00 | 0.00 | 37 | 1020.5 |
| 20260507082035 | 57 | 288 | 1.0 | 2.0 | 0.00 | 0.00 | 0.00 | 37 | 1020.5 |
| 20260507081536 | 57 | 261 | 1.0 | 2.0 | 0.00 | 0.00 | 0.00 | 37 | 1020.4 |
| 20260507081035 | 57 | 255 | 0.0 | 2.0 | 0.00 | 0.00 | 0.00 | 37 | 1020.4 |
| 20260507080030 | 57 | 258 | 0.0 | 2.0 | 0.00 | 0.00 | 0.00 | 37 | 1020.4 |
| 20260507075530 | 57 | 271 | 0.0 | 2.0 | 0.00 | 0.00 | 0.00 | 37 | 1020.4 |
| 20260507074528 | 57 | 260 | 0.0 | 2.0 | 0.00 | 0.00 | 0.00 | 37 | 1020.4 |
| 20260507073026 | 58 | 275 | 0.0 | 2.0 | 0.00 | 0.00 | 0.00 | 36 | 1020.5 |
| 20260507072026 | 58 | 277 | 1.0 | 3.0 | 0.00 | 0.00 | 0.00 | 36 | 1020.4 |
| 20260507071525 | 58 | 258 | 2.0 | 3.0 | 0.00 | 0.00 | 0.00 | 36 | 1020.4 |
| 20260507071024 | 58 | 257 | 1.0 | 3.0 | 0.00 | 0.00 | 0.00 | 35 | 1020.2 |
| 20260507070024 | 59 | 269 | 1.0 | 3.0 | 0.00 | 0.00 | 0.00 | 35 | 1020.2 |
| 20260507065523 | 59 | 264 | 1.0 | 2.0 | 0.00 | 0.00 | 0.00 | 35 | 1020.2 |
| 20260507065024 | 59 | 269 | 1.0 | 3.0 | 0.00 | 0.00 | 0.00 | 35 | 1020.1 |
| 20260507064524 | 59 | 279 | 1.0 | 3.0 | 0.00 | 0.00 | 0.00 | 35 | 1020.1 |
| 20260507064024 | 59 | 261 | 2.0 | 3.0 | 0.00 | 0.00 | 0.00 | 34 | 1020.0 |
| 20260507063524 | 60 | 265 | 2.0 | 3.0 | 0.00 | 0.00 | 0.00 | 34 | 1020.0 |
| 20260507063024 | 60 | 285 | 1.0 | 3.0 | 0.00 | 0.00 | 0.00 | 34 | 1019.9 |
| 20260507062523 | 60 | 264 | 1.0 | 3.0 | 0.00 | 0.00 | 0.00 | 34 | 1019.9 |
| 20260507062023 | 60 | 255 | 1.0 | 3.0 | 0.00 | 0.00 | 0.00 | 34 | 1019.8 |
| 20260507061524 | 60 | 260 | 1.0 | 3.0 | 0.00 | 0.00 | 0.00 | 34 | 1019.8 |
| 20260507061024 | 60 | 257 | 1.0 | 3.0 | 0.00 | 0.00 | 0.00 | 33 | 1019.6 |
| 20260507055524 | 61 | 260 | 1.0 | 4.0 | 0.00 | 0.00 | 0.00 | 32 | 1019.6 |
| 20260507055024 | 62 | 260 | 1.0 | 4.0 | 0.00 | 0.00 | 0.00 | 32 | 1019.6 |
| 20260507054523 | 62 | 260 | 1.0 | 3.0 | 0.00 | 0.00 | 0.00 | 31 | 1019.6 |
| 20260507054024 | 62 | 248 | 1.0 | 3.0 | 0.00 | 0.00 | 0.00 | 31 | 1019.6 |
| 20260507053523 | 62 | 254 | 1.0 | 2.0 | 0.00 | 0.00 | 0.00 | 31 | 1019.6 |
| 20260507053024 | 62 | 257 | 1.0 | 3.0 | 0.00 | 0.00 | 0.00 | 31 | 1019.3 |
| 20260507052020 | 63 | 259 | 1.0 | 2.0 | 0.00 | 0.00 | 0.00 | 31 | 1019.2 |
| 20260507051520 | 63 | 258 | 1.0 | 3.0 | 0.00 | 0.00 | 0.00 | 31 | 1019.1 |
| 20260507051019 | 63 | 254 | 2.0 | 3.0 | 0.00 | 0.00 | 0.00 | 30 | 1019.1 |
| 20260507050014 | 64 | 274 | 2.0 | 5.0 | 0.00 | 0.00 | 0.00 | 30 | 1019.0 |
| 20260507045516 | 64 | 271 | 2.0 | 5.0 | 0.00 | 0.00 | 0.00 | 30 | 1019.0 |
| 20260507045014 | 64 | 259 | 2.0 | 4.0 | 0.00 | 0.00 | 0.00 | 29 | 1018.9 |
| 20260507044512 | 64 | 236 | 2.0 | 3.0 | 0.00 | 0.00 | 0.00 | 29 | 1018.9 |
| 20260507044011 | 65 | 265 | 1.0 | 3.0 | 0.00 | 0.00 | 0.00 | 29 | 1018.9 |
| 20260507043510 | 65 | 250 | 1.0 | 3.0 | 0.00 | 0.00 | 0.00 | 28 | 1018.9 |
| 20260507043011 | 65 | 254 | 1.0 | 3.0 | 0.00 | 0.00 | 0.00 | 28 | 1018.6 |
| 20260507042511 | 65 | 269 | 1.0 | 2.0 | 0.00 | 0.00 | 0.00 | 28 | 1018.4 |
| 20260507042010 | 65 | 253 | 0.0 | 3.0 | 0.00 | 0.00 | 0.00 | 28 | 1018.4 |
| 20260507041511 | 66 | 258 | 0.0 | 3.0 | 0.00 | 0.00 | 0.00 | 28 | 1018.2 |
| 20260507041009 | 66 | 261 | 0.0 | 1.0 | 0.00 | 0.00 | 0.00 | 27 | 1018.2 |
| 20260507040508 | 66 | 275 | 0.0 | 3.0 | 0.00 | 0.00 | 0.00 | 27 | 1018.1 |
| 20260507023500 | 69 | 173 | 7.0 | 18.0 | 0.00 | 0.00 | 0.00 | 25 | 1016.4 |
| 20260507023000 | 69 | 225 | 6.0 | 15.0 | 0.00 | 0.00 | 0.00 | 25 | 1016.4 |
| 20260507022500 | 69 | 186 | 6.0 | 14.0 | 0.00 | 0.00 | 0.00 | 25 | 1016.4 |
| 20260507022001 | 69 | 180 | 6.0 | 14.0 | 0.00 | 0.00 | 0.00 | 25 | 1016.3 |
| 20260507021500 | 69 | 188 | 7.0 | 14.0 | 0.00 | 0.00 | 0.00 | 25 | 1016.3 |
| 20260507020500 | 69 | 140 | 7.0 | 15.0 | 0.00 | 0.00 | 0.00 | 25 | 1016.2 |
| 20260507020001 | 69 | 201 | 6.0 | 12.0 | 0.00 | 0.00 | 0.00 | 25 | 1016.2 |
| 20260507015501 | 69 | 170 | 6.0 | 12.0 | 0.00 | 0.00 | 0.00 | 25 | 1016.2 |
| 20260507015000 | 70 | 184 | 5.0 | 14.0 | 0.00 | 0.00 | 0.00 | 25 | 1016.3 |
| 20260507014500 | 70 | 161 | 4.0 | 14.0 | 0.00 | 0.00 | 0.00 | 24 | 1016.4 |
| 20260507014001 | 70 | 159 | 4.0 | 11.0 | 0.00 | 0.00 | 0.00 | 24 | 1016.2 |
| 20260507013500 | 70 | 200 | 4.0 | 11.0 | 0.00 | 0.00 | 0.00 | 24 | 1016.0 |
| 20260507012958 | 70 | 173 | 3.0 | 8.0 | 0.00 | 0.00 | 0.00 | 24 | 1016.2 |
| 20260507011959 | 70 | 148 | 4.0 | 8.0 | 0.00 | 0.00 | 0.00 | 24 | 1016.0 |
| 20260507011458 | 70 | 169 | 4.0 | 8.0 | 0.00 | 0.00 | 0.00 | 23 | 1015.9 |
| 20260507010958 | 71 | 195 | 4.0 | 10.0 | 0.00 | 0.00 | 0.00 | 23 | 1016.0 |
| 20260507010459 | 71 | 226 | 3.0 | 10.0 | 0.00 | 0.00 | 0.00 | 22 | 1015.9 |
| 20260507005958 | 71 | 179 | 3.0 | 6.0 | 0.00 | 0.00 | 0.00 | 22 | 1015.9 |
| 20260507005458 | 71 | 170 | 2.0 | 6.0 | 0.00 | 0.00 | 0.00 | 23 | 1015.8 |
| 20260507004458 | 72 | 185 | 3.0 | 6.0 | 0.00 | 0.00 | 0.00 | 22 | 1015.8 |
| 20260507003458 | 73 | 173 | 3.0 | 8.0 | 0.00 | 0.01 | 0.00 | 21 | 1015.7 |
| 20260507002958 | 75 | 162 | 3.0 | 7.0 | 0.00 | 0.01 | 0.00 | 21 | 1015.9 |
| 20260507002457 | 74 | 149 | 4.0 | 9.0 | 0.00 | 0.01 | 0.00 | 21 | 1015.8 |
| 20260507001959 | 74 | 157 | 4.0 | 9.0 | 0.00 | 0.01 | 0.00 | 21 | 1015.6 |
| 20260507001459 | 74 | 136 | 3.0 | 7.0 | 0.00 | 0.01 | 0.00 | 20 | 1015.5 |
| 20260507000957 | 74 | 135 | 2.0 | 5.0 | 0.00 | 0.01 | 0.00 | 20 | 1015.7 |
| 20260506235954 | 74 | 116 | 2.0 | 3.0 | 0.00 | 0.01 | 0.00 | 20 | 1015.5 |
| 20260506235456 | 74 | 119 | 2.0 | 4.0 | 0.00 | 0.01 | 0.00 | 20 | 1015.4 |
| 20260506234457 | 74 | 150 | 2.0 | 4.0 | 0.00 | 0.01 | 0.00 | 20 | 1015.5 |
| 20260506233957 | 75 | 106 | 2.0 | 4.0 | 0.00 | 0.01 | 0.00 | 19 | 1015.5 |
| 20260506233457 | 75 | 157 | 1.0 | 4.0 | 0.00 | 0.01 | 0.00 | 19 | 1015.4 |
| 20260506232955 | 76 | 157 | 2.0 | 6.0 | 0.00 | 0.01 | 0.00 | 18 | 1015.5 |
| 20260506232455 | 77 | 151 | 3.0 | 6.0 | 0.00 | 0.01 | 0.00 | 19 | 1015.4 |
| 20260506231955 | 78 | 142 | 2.0 | 5.0 | 0.00 | 0.01 | 0.00 | 18 | 1015.5 |
| 20260506231455 | 78 | 176 | 2.0 | 5.0 | 0.00 | 0.01 | 0.00 | 19 | 1015.5 |
| 20260506230454 | 77 | 113 | 3.0 | 6.0 | 0.00 | 0.01 | 0.00 | 19 | 1015.6 |
| 20260506225952 | 77 | 132 | 2.0 | 5.0 | 0.00 | 0.01 | 0.00 | 19 | 1015.6 |
| 20260506224451 | 77 | 167 | 2.0 | 5.0 | 0.00 | 0.01 | 0.00 | 19 | 1015.7 |
| 20260506223950 | 76 | 166 | 2.0 | 4.0 | 0.00 | 0.01 | 0.00 | 19 | 1015.8 |
| 20260506223451 | 76 | 180 | 2.0 | 4.0 | 0.00 | 0.01 | 0.00 | 19 | 1015.8 |
| 20260506222950 | 77 | 169 | 1.0 | 4.0 | 0.00 | 0.01 | 0.00 | 18 | 1015.8 |
| 20260506222451 | 78 | 142 | 2.0 | 4.0 | 0.00 | 0.01 | 0.00 | 19 | 1015.9 |
| 20260506221950 | 78 | 147 | 1.0 | 5.0 | 0.00 | 0.01 | 0.00 | 18 | 1016.0 |
| 20260506221450 | 78 | 142 | 1.0 | 5.0 | 0.00 | 0.01 | 0.00 | 19 | 1016.0 |
| 20260506220950 | 78 | 89 | 1.0 | 4.0 | 0.00 | 0.01 | 0.00 | 18 | 1016.3 |
| 20260506220448 | 78 | 336 | 1.0 | 4.0 | 0.00 | 0.01 | 0.00 | 18 | 1016.3 |
| 20260506214945 | 76 | 109 | 2.0 | 4.0 | 0.00 | 0.01 | 0.00 | 20 | 1016.7 |
| 20260506213945 | 75 | 217 | 2.0 | 5.0 | 0.00 | 0.01 | 0.00 | 20 | 1016.8 |
| 20260506213442 | 75 | 196 | 2.0 | 4.0 | 0.00 | 0.01 | 0.00 | 20 | 1016.9 |
| 20260506212942 | 76 | 198 | 2.0 | 4.0 | 0.00 | 0.01 | 0.00 | 19 | 1017.1 |
| 20260506211942 | 77 | 259 | 1.0 | 4.0 | 0.00 | 0.01 | 0.00 | 19 | 1017.2 |
| 20260506210939 | 75 | 274 | 1.0 | 4.0 | 0.00 | 0.01 | 0.00 | 21 | 1017.3 |
| 20260506210436 | 74 | 306 | 1.0 | 4.0 | 0.00 | 0.01 | 0.00 | 22 | 1017.3 |
| 20260506205938 | 74 | 190 | 1.0 | 4.0 | 0.00 | 0.01 | 0.00 | 21 | 1017.3 |
| 20260506205434 | 75 | 180 | 1.0 | 4.0 | 0.00 | 0.01 | 0.00 | 21 | 1017.4 |
| 20260506204933 | 76 | 34 | 0.0 | 4.0 | 0.00 | 0.01 | 0.00 | 21 | 1017.4 |
| 20260506204433 | 76 | 89 | 1.0 | 5.0 | 0.00 | 0.01 | 0.00 | 20 | 1017.4 |
| 20260506203432 | 77 | 31 | 1.0 | 6.0 | 0.00 | 0.01 | 0.00 | 21 | 1017.4 |
| 20260506202432 | 77 | 50 | 2.0 | 6.0 | 0.00 | 0.01 | 0.00 | 21 | 1017.5 |
| 20260506201932 | 77 | 119 | 2.0 | 6.0 | 0.00 | 0.01 | 0.00 | 22 | 1017.5 |
| 20260506201432 | 76 | 117 | 1.0 | 4.0 | 0.00 | 0.01 | 0.00 | 21 | 1017.6 |
| 20260506200926 | 76 | 131 | 2.0 | 5.0 | 0.00 | 0.01 | 0.00 | 22 | 1017.7 |
| 20260506195924 | 76 | 127 | 1.0 | 3.0 | 0.00 | 0.01 | 0.00 | 22 | 1017.9 |
| 20260506195425 | 75 | 100 | 1.0 | 5.0 | 0.00 | 0.01 | 0.00 | 24 | 1017.9 |
| 20260506194924 | 74 | 306 | 1.0 | 5.0 | 0.00 | 0.01 | 0.00 | 22 | 1018.0 |
| 20260506194425 | 74 | 150 | 1.0 | 4.0 | 0.00 | 0.01 | 0.00 | 24 | 1018.0 |
| 20260506193925 | 74 | 125 | 1.0 | 4.0 | 0.00 | 0.01 | 0.00 | 24 | 1018.1 |
| 20260506193422 | 74 | 30 | 1.0 | 6.0 | 0.00 | 0.01 | 0.00 | 24 | 1018.1 |
| 20260506192922 | 74 | 328 | 1.0 | 6.0 | 0.00 | 0.01 | 0.00 | 23 | 1018.2 |
| 20260506192420 | 73 | 53 | 1.0 | 3.0 | 0.00 | 0.01 | 0.00 | 24 | 1018.3 |
| 20260506191420 | 72 | 49 | 1.0 | 3.0 | 0.00 | 0.01 | 0.00 | 25 | 1018.4 |
| 20260506190921 | 71 | 84 | 2.0 | 5.0 | 0.00 | 0.01 | 0.00 | 25 | 1018.4 |
| 20260506190420 | 71 | 5 | 2.0 | 5.0 | 0.00 | 0.01 | 0.00 | 24 | 1018.5 |
| 20260506185918 | 72 | 44 | 1.0 | 5.0 | 0.00 | 0.01 | 0.00 | 25 | 1018.5 |
| 20260506185419 | 71 | 105 | 1.0 | 3.0 | 0.00 | 0.01 | 0.00 | 25 | 1018.6 |
| 20260506184416 | 71 | 114 | 1.0 | 3.0 | 0.00 | 0.01 | 0.00 | 26 | 1018.8 |
| 20260506182913 | 70 | 116 | 1.0 | 3.0 | 0.00 | 0.01 | 0.00 | 26 | 1019.0 |
| 20260506182410 | 70 | 98 | 1.0 | 3.0 | 0.00 | 0.01 | 0.00 | 27 | 1019.2 |
| 20260506181908 | 69 | 110 | 1.0 | 3.0 | 0.00 | 0.01 | 0.00 | 27 | 1019.1 |
| 20260506181409 | 68 | 22 | 1.0 | 3.0 | 0.00 | 0.01 | 0.00 | 28 | 1019.2 |
| 20260506180906 | 68 | 355 | 1.0 | 5.0 | 0.00 | 0.01 | 0.00 | 28 | 1019.2 |
| 20260506175402 | 68 | 79 | 1.0 | 4.0 | 0.00 | 0.01 | 0.00 | 28 | 1019.1 |
| 20260506174902 | 68 | 140 | 1.0 | 4.0 | 0.00 | 0.01 | 0.00 | 28 | 1019.2 |
| 20260506174400 | 67 | 74 | 0.0 | 3.0 | 0.00 | 0.01 | 0.00 | 29 | 1019.3 |
| 20260506173858 | 66 | 40 | 1.0 | 3.0 | 0.00 | 0.01 | 0.00 | 30 | 1019.3 |
| 20260506172858 | 66 | 82 | 1.0 | 3.0 | 0.00 | 0.01 | 0.00 | 30 | 1019.3 |
| 20260506172358 | 66 | 11 | 1.0 | 3.0 | 0.00 | 0.01 | 0.00 | 30 | 1019.4 |
| 20260506171352 | 66 | 69 | 2.0 | 3.0 | 0.00 | 0.01 | 0.00 | 29 | 1019.4 |
| 20260506170850 | 66 | 119 | 1.0 | 3.0 | 0.00 | 0.01 | 0.00 | 30 | 1019.3 |
| 20260506170348 | 65 | 109 | 1.0 | 3.0 | 0.00 | 0.01 | 0.00 | 32 | 1019.3 |
| 20260506165848 | 64 | 80 | 1.0 | 3.0 | 0.00 | 0.01 | 0.00 | 31 | 1019.3 |
| 20260506164846 | 64 | 123 | 1.0 | 3.0 | 0.00 | 0.01 | 0.00 | 30 | 1019.3 |
| 20260506163344 | 64 | 120 | 1.0 | 2.0 | 0.00 | 0.01 | 0.00 | 33 | 1019.6 |
| 20260506162347 | 63 | 106 | 1.0 | 3.0 | 0.00 | 0.01 | 0.00 | 34 | 1019.4 |
| 20260506161842 | 62 | 101 | 1.0 | 2.0 | 0.00 | 0.01 | 0.00 | 34 | 1019.4 |
| 20260506161342 | 62 | 125 | 1.0 | 3.0 | 0.00 | 0.01 | 0.00 | 34 | 1019.4 |
| 20260506160842 | 62 | 95 | 1.0 | 3.0 | 0.00 | 0.01 | 0.00 | 34 | 1019.4 |
| 20260506160342 | 62 | 11 | 0.0 | 2.0 | 0.00 | 0.01 | 0.00 | 33 | 1019.4 |
| 20260506155842 | 62 | 46 | 0.0 | 2.0 | 0.00 | 0.01 | 0.00 | 34 | 1019.4 |
| 20260506155342 | 61 | 121 | 0.0 | 2.0 | 0.00 | 0.01 | 0.00 | 35 | 1019.4 |
| 20260506154842 | 61 | 126 | 0.0 | 2.0 | 0.00 | 0.01 | 0.00 | 35 | 1019.4 |
| 20260506154342 | 60 | 80 | 0.0 | 2.0 | 0.00 | 0.01 | 0.00 | 35 | 1019.4 |
| 20260506153840 | 60 | 52 | 0.0 | 2.0 | 0.00 | 0.01 | 0.00 | 36 | 1019.4 |
| 20260506153343 | 60 | 30 | 0.0 | 2.0 | 0.00 | 0.01 | 0.00 | 36 | 1019.3 |
| 20260506152838 | 59 | 103 | 0.0 | 2.0 | 0.00 | 0.01 | 0.00 | 38 | 1019.3 |
| 20260506152336 | 58 | 80 | 0.0 | 2.0 | 0.00 | 0.01 | 0.00 | 38 | 1019.3 |